Back to catalog

NOAA 16 DEB

AlivePO
NORAD 42359·DEBRIS·🇺🇸 United States

Launched Sep 21, 2000 from Vandenberg Space Force Base

Loading…

Next Passes (next 24 hours)

TLE

FreshSource: Space-Track

Epoch: Sep 14, 2026, 08:01 UTC

1 42359U 00055RB  26257.33421713  .00003915  00000-0  10655-2 0  9996
2 42359  98.9756  81.4501 0012916 275.6370  84.3348 14.48026976543310

Track NOAA 16 DEB in real time with AllMySat

Download on the App Store